sat.trackr.live / text

‹ back to catalog

JILIN-1 GAOFEN 03D13

NORAD 51846 · 2022-019Y

PAYLOAD ACTIVE UNKNOWN

§ Identity

Operator
Country
PRC
Launch date
2022-02-27
Launch site
WSC
Launch vehicle
Mass (kg)
RCS (m²)

External: N2YO · Heavens-Above · Gunter

§ Orbital elements

Epoch: 2026-06-25T00:44:44.036736Z

Period
88.10 min
Inclination
97.3536°
Eccentricity
0.0013900
Mean motion
16.34468744 rev/d
Perigee alt
171.4 km
Apogee alt
189.7 km
Semi-major
6,558.7 km
B*
8.9624e-4
RAAN
274.0693°
Arg perigee
262.0515°
Mean anomaly
97.9204°
Rev number
24,121

§ Raw data

JILIN-1 GAOFEN 03D131 51846U 22019Y   26176.03106524  .06214637  24897-5  89624-3 0  99972 51846  97.3536 274.0693 0013900 262.0515  97.9204 16.34468744241212

JSON: /api/v1/satellites/51846 · /tle

For live sub-satellite position, see the globe view (requires WebGL).

§ Visibility from observer

Set your observer location to see the next 7 days of passes ≥ 10°. The values pass through the URL so the page stays shareable.

No JS? Fill the form by hand. The geolocation button needs JavaScript.